This demonstration page uses our WeatherBlox Daily Observations layout. Learn more.

Left ArrowRight Arrow

Hourly Observations for January 16, 2022

Temp ( °F °C ) Dew Point ( °F °C ) Humidity (%) Winds ( mph kmh ) Pressure ( in mb ) Visibility ( mi km ) Precip ( " mm )
12:54 am 00:54 Clear 7 -13.9 2 -16.7 80 80 S 6 9 30.24 1024 10 16 0.00 0.00
1:54 am 01:54 Clear 8 -13.3 3 -16.1 80 80 S 8 13 30.21 1023 10 16 0.00 0.00
2:54 am 02:54 Clear 8 -13.3 4 -15.6 83 83 SSE 7 11 30.17 1022 10 16 0.00 0.00
3:54 am 03:54 Clear 9 -12.8 5 -15 84 84 SSE 3 6 30.11 1020 10 16 0.00 0.00
4:54 am 04:54 Clear 11 -11.7 5 -15 77 77 S 6 9 30.06 1018 10 16 0.00 0.00
5:54 am 05:54 Clear 16 -8.9 10 -12.2 77 77 SSW 7 11 30.05 1018 10 16 0.00 0.00
6:54 am 06:54 Clear 16 -8.9 11 -11.7 80 80 S 10 17 30.01 1016 10 16 0.00 0.00
7:54 am 07:54 Sunny 17 -8.3 10 -12.2 74 74 SSW 8 13 30.00 1016 10 16 0.00 0.00
8:54 am 08:54 Sunny 19 -7.2 13 -10.6 77 77 S 6 9 29.99 1016 10 16 0.00 0.00
9:54 am 09:54 Sunny 25 -3.9 15 -9.4 66 66 WSW 10 17 29.97 1015 10 16 0.00 0.00
10:54 am 10:54 Sunny 31 -0.6 19 -7.2 61 61 W 6 9 29.98 1015 10 16 0.00 0.00
11:54 am 11:54 Sunny 39 3.9 25 -3.9 57 57 NNW 14 22 29.96 1015 10 16 0.00 0.00
12:54 pm 12:54 Sunny 44 6.7 31 -0.6 60 60 NNW 9 15 29.93 1014 10 16 0.00 0.00
1:54 pm 13:54 Sunny 48 8.9 34 1.1 58 58 NNW 13 20 29.93 1014 10 16 0.00 0.00
2:54 pm 14:54 Partly Cloudy 49 9.4 31 -0.6 50 50 NNW 25 41 29.94 1014 10 16 0.00 0.00
3:54 pm 15:54 Mostly Sunny 47 8.3 29 -1.7 50 50 N 13 20 29.97 1015 10 16 0.00 0.00
4:54 pm 16:54 Cloudy 45 7.2 29 -1.7 54 54 NNW 21 33 30.01 1016 10 16 0.00 0.00
5:54 pm 17:54 Clear 42 5.6 29 -1.7 60 60 NNW 16 26 30.02 1017 10 16 0.00 0.00
6:54 pm 18:54 Clear 39 3.9 29 -1.7 67 67 WNW 7 11 30.04 1017 10 16 0.00 0.00
7:54 pm 19:54 Clear 33 0.6 27 -2.8 78 78 N 3 6 30.06 1018 10 16 0.00 0.00
8:54 pm 20:54 Clear 35 1.7 28 -2.2 76 76 NW 6 9 30.07 1018 10 16 0.00 0.00
9:54 pm 21:54 Clear 33 0.6 27 -2.8 78 78 NW 5 7 30.07 1018 10 16 0.00 0.00
10:54 pm 22:54 Clear 25 -3.9 21 -6.1 85 85 NW 5 7 30.08 1019 10 16 0.00 0.00
11:54 pm 23:54 Clear 31 -0.6 26 -3.3 82 82 WNW 7 11 30.07 1018 10 16 0.00 0.00

Powered by AerisWeather